[[{"header":{"parameterUnit":"m.s-1","parameterCategory":1,"la1":30.2992,"la2":30.254,"lo1":-89.0895,"lo2":-89.0443,"dy":0.0025,"dx":0.0025,"nx":19,"ny":19,"refTime":"2026-03-25T09:00:00:Z","depth":0,"parameterNumber":2,"parameterNumberName":"U-component_of_WINDS"},"data":[0,0,0,-2.7801,-2.7804,-2.7912,-2.7912,-2.8075,-2.8077,0,0,0,0,0,0,0,0,0,0,0,-2.7784,-2.7786,-2.7801,-2.7804,-2.7912,-2.7912,-2.8075,-2.8077,0,0,0,0,0,0,0,0,0,0,0,-2.7784,-2.7786,-2.7788,-2.7804,-2.7912,-2.7912,-2.8074,-2.7984,0,0,0,0,0,0,0,0,0,0,-2.7875,-2.7874,-2.7785,-2.7788,-2.7805,-2.7911,-2.7912,-2.7979,-2.799,-2.8037,0,-2.8083,0,-2.8083,-2.8089,-2.809,0,0,0,-2.7792,-2.7866,-2.7881,-2.7788,-2.7806,-2.7911,-2.786,-2.7985,-2.7996,-2.8051,-2.8085,-2.809,-2.8085,-2.809,-2.8091,-2.8403,-2.8405,0,0,-2.7787,-2.7812,-2.7873,-2.789,-2.7875,-2.7856,-2.7863,-2.7991,-2.803,-2.8086,-2.8094,-2.8088,-2.8092,-2.8093,-2.8401,-2.8404,0,0,0,-2.7777,-2.7808,-2.782,-2.7884,-2.7901,-2.786,-2.7868,-2.8025,-2.8026,-2.8095,-2.809,-2.8093,-2.8095,-2.8399,-2.8402,-2.8526,0,0,0,-2.7773,-2.7803,-2.7818,-2.7834,-2.7899,-2.7964,-2.7899,-2.8017,-2.8031,-2.8089,-2.8093,-2.8097,-2.8397,-2.8401,-2.8518,-2.858,0,0,0,-2.7772,-2.7802,-2.7823,-2.7836,-2.7883,-2.7962,-2.797,-2.802,-2.8029,-2.809,-2.8097,-2.8395,-2.84,-2.851,-2.8568,-2.867,0,0,0,-2.7778,-2.7931,-2.7826,-2.7994,-2.7882,-2.8037,-2.7969,-2.8083,-2.8151,-2.8094,-2.8397,-2.8402,-2.8508,-2.856,-2.8662,-2.876,-2.8803,0,0,-2.7985,-2.7957,-2.8054,-2.7963,-2.8143,-2.8019,-2.8217,-2.8255,-2.8237,-2.8349,-2.8356,-2.852,-2.8567,-2.8668,-2.9036,-2.9071,0,0,0,-2.8128,-2.8198,-2.8241,-2.8306,-2.8339,-2.8372,-2.8377,-2.8391,-2.8485,-2.83,-2.8584,-2.8611,-2.8669,-2.8715,-2.8744,-2.8792,-2.8424,-2.8424,-2.8423,-2.8457,-2.8427,-2.8586,-2.8569,-2.8634,-2.8638,-2.8687,-2.8707,-2.8657,-2.8725,-2.8758,-2.8985,-2.9039,-2.9061,-2.9112,-2.8807,-2.8807,-2.8808,-2.8808,-2.8757,-2.8852,-2.8783,-2.8913,-2.888,-2.8989,-2.8999,-2.896,-2.9056,-2.8957,-2.9007,-2.8902,-2.91,-2.9143,-2.8817,-2.8816,-2.8814,-2.8814,-2.8813,-2.8969,-2.9009,-2.9024,-2.9117,-2.9192,-2.9169,-2.9266,-2.9232,-2.9202,-2.9251,-2.9282,-2.928,-2.9274,-2.9268,-2.9269,-2.927,-2.9271,-2.9271,-2.9272,-2.9183,-2.9196,-2.9281,-2.933,-2.9368,-2.9414,-2.942,-2.9457,-2.9489,-2.9457,-2.9457,-2.9401,-2.9125,-2.9056,-2.9284,-2.9282,-2.928,-2.9279,-2.9278,-2.9498,-2.9421,-2.9553,-2.9592,-2.9647,-2.9724,-2.968,-2.9758,-2.9784,-2.9833,-2.9766,-2.9568,-2.9536,-2.9512,-2.9455,-2.9772,-2.9772,-2.9772,-2.9772,-2.9676,-2.9657,-2.9785,-2.9849,-2.9908,-2.9883,-3.0033,-3.004,-3.0034,-3.0049,-2.9998,-2.9919,-2.9897,-2.9879,-2.9847,-2.9793,-3.0189,-3.0189,-3.019,-2.9868,-2.9854,-2.9988,-2.9982,-3.0023,-3.0059,-3.0199,-3.0276,-3.0254,-3.0206,-3.0059,-3.0041,-2.9914,-2.9874,-2.9822,-2.9774,-2.9675,0,0]},{"header":{"parameterUnit":"m.s-1","parameterCategory":1,"la1":30.2992,"la2":30.254,"lo1":-89.0895,"lo2":-89.0443,"dy":0.0025,"dx":0.0025,"nx":19,"ny":19,"refTime":"2026-03-25T09:00:00:Z","depth":0,"parameterNumber":3,"parameterNumberName":"V-component_of_WINDS"},"data":[0,0,0,0.4009,0.401,0.4053,0.4053,0.4109,0.4109,0,0,0,0,0,0,0,0,0,0,0,0.3995,0.3996,0.4009,0.401,0.4053,0.4053,0.4109,0.4109,0,0,0,0,0,0,0,0,0,0,0,0.3995,0.3996,0.3996,0.401,0.4053,0.4053,0.4109,0.4076,0,0,0,0,0,0,0,0,0,0,0.4034,0.4021,0.3996,0.3996,0.401,0.4053,0.4053,0.4074,0.4078,0.4089,0,0.4099,0,0.4105,0.4113,0.4113,0,0,0,0.401,0.4018,0.403,0.3996,0.401,0.4053,0.4034,0.4076,0.408,0.4094,0.41,0.4102,0.4106,0.4113,0.4114,0.4177,0.4177,0,0,0.4007,0.4003,0.4027,0.4033,0.4026,0.4032,0.4035,0.4079,0.4085,0.41,0.4103,0.4107,0.4114,0.4114,0.4177,0.4177,0,0,0,0.4,0.4001,0.4012,0.403,0.4038,0.4033,0.4037,0.4083,0.4087,0.4104,0.4107,0.4114,0.4115,0.4176,0.4177,0.4187,0,0,0,0.3999,0.3997,0.4011,0.4009,0.4038,0.4061,0.404,0.4084,0.4089,0.4107,0.4114,0.4115,0.4176,0.4177,0.4186,0.4192,0,0,0,0.3993,0.3997,0.4003,0.4009,0.4027,0.4061,0.4067,0.4085,0.4091,0.4113,0.4115,0.4176,0.4176,0.4185,0.419,0.4207,0,0,0,0.3985,0.4011,0.4003,0.4034,0.4027,0.4066,0.4067,0.4096,0.4116,0.4114,0.4176,0.4177,0.4185,0.419,0.4206,0.4219,0.4225,0,0,0.4016,0.4015,0.4033,0.4027,0.4067,0.406,0.4101,0.4124,0.413,0.4161,0.4163,0.4186,0.419,0.4207,0.4258,0.4262,0,0,0,0.4041,0.4055,0.4066,0.4085,0.4103,0.4119,0.4135,0.4144,0.417,0.4145,0.4197,0.42,0.4209,0.4216,0.422,0.4228,0.418,0.418,0.418,0.4078,0.4085,0.4116,0.4128,0.4146,0.4163,0.4179,0.4193,0.4194,0.4206,0.4215,0.4246,0.4253,0.4256,0.4265,0.4224,0.4224,0.4224,0.4224,0.4124,0.4143,0.4144,0.4175,0.4181,0.4207,0.4225,0.4225,0.425,0.4239,0.4248,0.4236,0.426,0.4268,0.4224,0.4224,0.4224,0.4224,0.4224,0.4148,0.4158,0.4168,0.4197,0.4218,0.4229,0.4253,0.4258,0.4264,0.4272,0.4282,0.4282,0.4282,0.4277,0.4277,0.4277,0.4277,0.4277,0.4277,0.4169,0.418,0.4199,0.4221,0.4234,0.4252,0.427,0.4282,0.4298,0.43,0.43,0.43,0.4262,0.4252,0.4279,0.4279,0.4279,0.4278,0.4278,0.4211,0.4203,0.4233,0.4246,0.4271,0.4292,0.4299,0.4325,0.4336,0.4348,0.4346,0.4317,0.4317,0.4314,0.4305,0.4345,0.4345,0.4345,0.4345,0.4231,0.4232,0.4264,0.4284,0.4305,0.4314,0.4348,0.4362,0.4375,0.4383,0.4378,0.4368,0.4365,0.4366,0.4362,0.4354,0.4405,0.4405,0.4405,0.4257,0.426,0.4287,0.4301,0.4321,0.4339,0.4371,0.4394,0.4408,0.4408,0.4389,0.4386,0.437,0.4364,0.4363,0.4357,0.4343,0,0]}]]